Location: Borbetomagus
(49.6328°N, 8.3592°E)
Time: 06:21:22
(UTC+00:00)

ASTEX 1 - Pass Details

Date: 19 May 2025
Orbit: 714 x 734 km, 92.7° (Epoch: 22 June)

Event Time Altitude Azimuth Distance (km) Brightness Sun altitude
Rises 23:17:27 0° 7° (N) 3,163 8.2 -20.4°
Reaches altitude 10° 23:19:46 10° 9° (N) 2,240 7.1 -20.4°
Maximum altitude 23:24:43 75° 95° (E) 763 3.4 -20.4°
Enters shadow 23:26:15 45° 169° (S) 1,001 3.6 -20.4°
